User: anonymous   Login
Location: Unspecified
(0.0000°N, 0.0000°E)
Time: 17:06:53
(UTC+02:00)
Language:

Cosmos 1733 Rocket - Orbit

View from above orbital plane
View from above orbital plane
View from above satellite
View from above satellite

Ground track
Ground track

The orbit data is extracted from the following two-line orbital elements,

1 16612U 86018B   14295.50850594  .00000737  00000-0  86159-4 0   515
2 16612 082.5146 125.0612 0019410 109.1477 309.8523 14.83662179447793
Epoch (UTC): 22 October 2014 12:12:14
Eccentricity: 0.0019410
inclination: 82.5146°
perigee height: 604 km
apogee height: 631 km
right ascension of ascending node: 125.0612°
argument of perigee: 109.1477°
revolutions per day: 14.83662179
mean anomaly at epoch: 309.8523°
orbit number at epoch: 44779

The dashed part of the orbit path shows where the satellite is in the earth's shadow,  

DLR